GFSMA_925_thetae_111.txt.gz
Theta_e
332 330 328 327 327 325 324 324 323 323 325 327 327 326 324 325 325 326 327 326 327 328 328 327 326 325 325 323 322 321 319 318 315 316 317 318 319 320 321 321 320 320 320
326 325 326 325 324 324 323 323 321 324 325 326 326 324 323 322 323 324 325 325 325 326 328 330 330 329 327 326 325 323 322 320 318 316 314 313 314 318 319 319 319 319 319
324 323 323 322 320 319 320 321 321 326 330 331 331 329 330 329 326 322 321 324 324 325 327 327 329 329 329 328 327 326 325 324 322 321 318 314 310 314 316 316 317 319 319
320 320 320 322 325 327 328 329 330 332 332 331 331 330 329 328 328 327 323 322 323 325 327 327 327 327 326 326 329 328 327 325 324 322 321 319 313 311 314 314 315 316 317
329 329 328 329 330 330 330 330 331 332 332 332 330 328 327 327 326 325 325 324 322 324 326 326 327 327 327 326 326 325 324 324 325 325 323 321 319 315 312 315 313 314 315
333 333 332 332 332 332 332 332 332 333 333 331 328 328 328 327 326 326 326 324 325 325 324 327 327 327 327 326 325 324 323 323 323 323 324 324 322 319 317 314 315 315 315
331 332 332 333 333 333 333 332 332 332 332 330 327 328 328 328 328 327 327 327 327 327 328 328 327 327 326 327 325 323 322 321 322 322 322 322 323 322 321 319 317 317 317
330 330 329 330 331 332 332 332 333 332 329 328 328 327 330 327 327 327 327 327 327 326 327 328 328 328 327 326 324 322 321 321 321 320 320 320 322 322 323 322 320 319 318
329 330 329 329 331 331 330 330 332 330 328 328 328 329 329 329 326 326 325 326 326 326 326 327 327 326 325 324 323 320 320 319 319 319 319 319 319 321 322 323 322 322 320
329 329 328 328 328 328 330 330 330 328 328 328 328 329 329 329 328 329 323 322 323 324 325 325 324 324 324 324 322 320 319 318 319 318 316 316 318 320 321 322 322 322 322
329 327 327 328 328 330 330 330 329 328 329 329 329 328 327 327 327 327 327 323 324 324 324 323 323 322 323 324 322 319 318 318 317 315 315 315 319 319 319 320 320 321 321
330 331 331 329 331 331 326 325 331 330 329 329 329 328 328 326 325 325 325 325 324 323 322 322 322 323 322 321 319 317 317 317 315 314 313 318 317 318 318 319 319 317 321
332 332 333 332 332 329 328 331 331 331 330 328 328 327 326 326 325 325 324 324 322 321 322 322 320 320 318 317 316 314 314 314 314 317 319 317 317 316 315 315 312 312 322
331 332 332 330 330 328 328 328 328 327 326 324 323 322 323 323 324 323 324 324 323 322 319 321 321 320 317 314 313 312 313 315 316 316 315 314 313 312 312 314 314 316 321
331 331 329 328 327 326 325 326 325 324 323 323 324 322 321 321 321 321 321 321 322 322 321 319 318 318 315 312 310 310 310 312 314 313 313 312 310 309 310 312 313 312 316
329 329 327 326 325 323 322 322 322 321 320 317 315 314 314 314 314 314 315 316 317 317 318 318 317 316 314 310 309 308 308 309 310 309 309 309 307 307 308 309 308 310 310
325 324 323 321 320 320 319 318 316 314 313 313 313 313 312 311 312 313 314 315 315 316 316 315 314 314 311 311 308 307 306 306 306 305 305 305 305 304 305 306 305 305 306
320 319 319 318 317 315 313 311 311 310 310 310 310 310 309 309 310 312 312 312 313 314 312 313 310 309 307 306 306 305 304 304 304 303 302 303 302 302 303 303 303 303 303
317 317 316 314 311 310 309 308 307 306 306 306 307 307 308 308 308 307 308 308 310 311 311 310 307 305 303 303 302 302 302 301 300 300 301 301 300 300 300 300 299 299 299
315 312 309 308 307 306 305 305 305 304 304 304 305 305 305 305 305 305 305 306 306 308 308 307 305 302 301 301 301 301 299 298 298 299 299 299 298 298 298 297 296 296 296
308 307 306 305 304 304 304 304 304 303 303 302 302 302 302 302 302 302 302 303 303 305 305 305 303 301 300 299 299 299 298 297 297 297 296 296 295 295 295 293 293 292 291
305 305 304 303 302 302 302 303 303 302 301 300 300 300 299 300 300 300 300 301 301 301 302 302 302 301 302 302 300 299 297 293 291 294 294 293 293 292 291 290 290 288 287
302 302 302 301 301 301 301 301 301 300 300 298 298 298 298 298 298 298 298 299 299 299 299 299 299 300 300 301 301 298 297 295 295 295 292 290 290 290 289 288 288 288 287
301 301 301 302 301 300 300 299 300 298 297 296 296 296 296 296 297 297 297 296 297 297 296 296 297 298 298 299 299 300 299 296 293 293 291 289 289 287 287 287 288 289 288
301 301 301 301 300 300 298 297 297 297 296 295 295 295 296 296 296 295 295 294 294 294 293 294 295 296 297 298 298 297 295 293 289 289 289 288 287 286 286 287 288 289 287
300 300 300 300 300 299 298 297 297 296 296 296 295 294 294 294 294 294 294 293 291 291 291 291 292 293 294 294 295 295 295 293 291 289 289 287 286 286 287 286 287 288 288

GFSMA_925_thetae_114.txt.gz
Theta_e
334 336 336 336 334 333 331 328 327 328 329 329 328 328 326 329 329 329 329 326 327 329 328 327 326 325 325 324 323 321 320 319 316 315 315 317 320 321 322 321 321 321 320
333 333 333 333 332 331 328 327 326 326 327 328 328 326 324 324 326 328 329 329 325 327 329 330 330 329 327 326 325 324 323 321 319 318 315 311 315 319 319 319 320 320 320
332 331 331 330 329 328 327 326 325 327 329 331 331 329 329 328 325 325 325 327 328 325 326 328 331 330 330 329 328 326 326 324 323 322 320 315 312 315 316 316 319 319 319
330 329 329 328 327 326 326 326 326 329 333 333 333 332 330 329 329 327 325 325 327 328 328 327 327 327 328 329 329 329 328 326 325 323 322 320 316 313 315 315 316 317 318
328 328 326 326 327 329 331 331 332 333 334 333 332 330 329 328 328 326 325 325 325 326 328 328 327 327 327 327 329 329 328 326 325 325 324 322 320 317 315 316 315 316 316
327 327 328 330 331 332 332 332 332 333 333 332 329 329 329 329 328 327 327 325 325 325 326 327 328 328 326 326 326 325 325 323 324 324 324 325 323 321 318 318 316 316 317
332 332 333 333 334 334 334 334 334 334 333 331 330 330 330 330 329 329 328 327 328 328 328 328 329 328 328 326 326 325 323 322 322 322 322 323 324 324 323 320 319 318 318
335 335 335 334 334 334 334 333 333 332 333 331 331 331 332 331 328 326 327 326 326 327 327 327 327 327 327 326 326 325 322 321 321 321 321 321 321 322 323 323 322 321 319
330 332 333 333 333 333 333 333 333 334 333 330 328 331 333 333 331 328 325 325 326 326 325 326 326 327 327 326 325 323 321 319 320 320 322 320 319 320 322 324 323 322 321
328 330 330 329 330 331 331 330 331 332 330 329 328 328 331 331 332 331 326 323 324 324 325 326 326 324 324 324 323 323 323 319 318 318 319 320 320 321 321 322 323 323 322
331 329 328 330 329 329 330 330 331 330 329 330 331 330 329 330 328 328 328 325 325 325 324 324 323 322 323 322 322 323 323 319 317 317 317 318 319 320 320 320 321 321 322
329 328 328 327 327 329 330 328 326 329 329 329 331 330 330 328 328 327 326 325 325 324 323 322 321 322 322 322 321 321 319 318 318 315 314 318 318 318 318 318 319 319 320
330 330 329 329 328 329 329 327 329 328 329 329 329 329 329 328 327 326 326 326 325 323 321 321 321 321 321 321 319 317 315 316 317 315 317 319 317 317 316 315 314 314 312
328 329 330 331 330 330 328 329 329 329 327 327 328 328 327 326 325 325 323 324 325 323 322 321 320 320 320 317 316 316 315 315 317 320 319 316 315 314 312 312 312 311 310
328 330 329 331 330 330 329 329 328 326 327 325 324 323 322 321 321 321 321 321 322 322 321 320 320 317 316 315 314 313 312 314 316 316 315 313 311 310 310 310 312 314 319
328 330 330 330 328 327 326 325 324 323 322 321 320 318 316 314 315 316 317 317 316 318 317 318 318 316 316 315 313 309 310 311 312 312 312 310 309 308 307 308 309 311 310
327 328 328 326 325 324 323 322 322 320 317 316 315 314 314 313 314 314 315 315 315 316 316 315 315 315 315 311 310 308 308 308 309 309 308 306 305 305 305 306 307 307 309
328 327 325 323 321 320 320 318 317 313 313 313 312 312 312 309 311 312 312 313 313 313 312 313 313 313 311 307 307 306 306 306 305 305 304 304 303 303 303 304 305 305 306
323 320 319 319 318 317 312 309 309 308 309 309 309 309 308 308 309 308 308 308 309 309 308 308 308 308 307 305 303 303 303 303 303 303 302 302 302 301 301 301 303 303 303
318 317 316 314 311 309 307 306 306 305 305 305 306 305 305 305 305 306 307 307 305 306 307 306 306 304 302 303 302 302 300 300 300 301 301 300 300 299 299 300 299 299 299
313 312 309 307 306 305 305 305 305 304 304 303 303 303 303 302 302 302 303 304 303 303 305 304 303 302 300 300 300 300 299 298 298 299 299 299 298 297 297 297 297 296 296
306 305 304 304 304 304 304 304 304 303 302 301 301 300 300 300 299 300 300 300 300 301 301 301 301 301 301 301 300 300 298 295 294 297 297 296 295 295 294 294 294 292 291
304 304 303 303 302 302 302 303 303 302 301 300 299 299 298 298 298 298 298 299 298 298 299 299 298 300 299 300 300 299 298 297 296 296 293 291 293 292 291 290 290 289 288
302 302 302 301 301 301 301 301 301 300 299 298 298 297 297 297 297 297 297 297 296 296 296 295 296 297 297 298 298 298 299 296 294 294 292 291 291 290 290 289 288 289 289
301 301 301 301 301 301 300 299 299 298 298 297 297 296 296 296 296 296 296 296 295 293 294 293 294 295 296 297 297 297 296 293 291 291 291 290 289 289 288 288 289 290 289
301 300 300 300 299 298 298 297 298 298 297 297 297 296 296 295 295 295 294 294 294 293 291 291 292 292 294 294 295 294 294 293 292 290 291 289 288 288 288 287 288 289 288

GFSMA_925_thetae_117.txt.gz
Theta_e
335 335 334 333 333 333 331 331 330 330 330 329 329 328 329 330 330 330 331 325 327 328 328 327 326 326 325 324 323 322 320 319 317 316 314 316 320 322 322 322 321 320 321
334 335 334 336 334 333 331 329 328 329 329 329 328 327 325 327 327 329 330 329 325 327 328 329 329 328 327 326 325 324 324 322 321 319 317 313 316 318 319 319 320 320 320
334 335 335 335 334 332 329 328 327 327 328 329 330 328 326 326 325 326 327 328 328 325 326 329 332 331 330 330 328 326 325 325 323 322 321 318 313 316 317 317 318 318 320
333 333 333 333 331 329 328 326 326 327 331 333 333 332 331 330 329 328 326 326 328 329 328 326 327 328 329 330 330 330 330 326 325 324 323 321 319 314 317 317 317 317 318
332 331 330 329 328 327 326 326 327 330 333 333 332 332 330 329 329 328 327 326 326 327 328 329 328 327 327 327 330 330 329 328 326 325 325 324 322 320 315 317 317 317 317
330 329 328 327 327 329 331 332 332 333 333 333 332 330 330 330 330 328 328 327 326 326 327 328 329 328 327 326 326 326 326 327 326 325 324 324 325 323 321 319 319 318 318
328 327 327 329 330 332 332 333 333 334 334 333 332 331 331 330 331 330 330 329 329 328 328 328 329 329 329 327 326 326 326 324 323 322 322 323 323 324 324 322 321 319 319
328 329 331 332 333 334 333 334 334 335 335 334 332 331 334 332 330 329 328 328 328 328 328 329 328 328 328 327 326 326 325 323 321 322 323 321 321 321 323 323 323 322 320
333 333 333 333 334 334 334 335 334 334 334 333 331 332 333 335 332 330 327 325 326 326 326 326 326 326 327 326 327 325 324 321 321 319 322 323 322 322 322 321 324 323 322
335 335 334 334 334 334 334 334 334 334 335 332 329 329 331 332 332 332 328 325 324 324 326 326 326 326 324 324 325 324 323 324 322 320 319 322 322 321 321 321 322 322 323
332 333 333 331 331 332 333 333 332 333 332 330 331 332 330 330 330 329 331 327 325 325 324 324 323 323 321 323 322 321 322 323 323 320 319 320 320 320 321 321 321 321 322
330 330 330 331 331 330 330 329 328 328 329 330 331 331 331 330 329 327 327 327 327 325 323 323 322 322 321 321 322 320 320 320 320 320 320 318 319 319 319 318 318 318 319
330 330 329 328 328 328 329 327 327 327 327 330 330 330 330 329 328 326 325 325 326 325 323 322 321 321 320 320 319 320 319 317 318 318 319 318 320 318 317 316 315 314 314
331 329 328 329 328 329 328 325 325 328 328 329 329 328 329 328 326 325 325 324 325 324 323 323 321 319 318 318 317 317 316 315 316 317 320 319 318 315 313 311 311 311 310
329 329 329 330 330 328 329 328 329 329 328 328 328 327 325 324 324 322 322 322 323 322 321 319 321 318 316 316 316 315 313 313 316 317 318 317 314 312 311 310 309 310 312
327 328 328 328 329 327 324 328 327 327 326 326 324 323 322 320 318 318 317 317 317 317 318 317 319 316 315 315 314 313 311 312 313 313 313 313 312 310 308 307 308 309 312
327 326 326 326 327 327 328 327 326 324 324 322 321 318 316 315 315 315 315 315 314 314 315 315 315 314 314 313 312 311 310 309 310 310 310 309 307 306 306 306 306 307 309
323 322 325 327 328 327 325 323 321 321 318 317 316 315 314 313 312 313 313 314 312 311 311 311 311 310 311 309 307 308 307 307 307 307 306 305 304 304 304 304 304 306 308
325 325 326 325 324 321 320 318 317 315 314 313 313 312 312 310 311 311 309 308 308 308 307 308 308 307 308 308 306 305 305 304 304 304 304 303 303 303 302 302 303 305 306
321 320 322 320 318 316 314 313 311 310 310 309 309 309 308 307 308 308 308 308 306 306 306 306 306 305 305 304 302 302 302 302 302 302 302 302 302 301 300 300 301 302 302
315 315 315 313 312 311 310 308 307 307 306 306 305 305 304 304 303 304 303 305 304 303 303 303 303 302 302 302 301 301 300 300 299 300 301 301 300 300 298 298 299 299 299
313 312 311 310 307 307 306 306 305 305 304 304 303 302 302 301 301 301 300 300 300 301 301 301 301 301 301 301 301 300 298 297 296 299 299 299 299 298 297 296 296 296 296
309 308 307 306 305 305 305 305 304 303 303 303 302 301 301 300 299 299 299 299 299 298 298 298 297 299 300 299 299 299 298 297 298 298 296 296 296 295 294 294 294 293 292
304 303 303 303 303 303 303 303 303 303 302 301 300 300 299 299 298 298 298 298 297 296 295 296 295 296 296 296 297 297 297 297 296 296 295 293 293 293 292 291 291 290 289
302 302 302 302 302 302 302 302 301 300 300 300 299 298 298 297 297 297 296 296 296 296 294 294 294 294 294 295 296 296 295 294 292 293 292 291 290 290 290 289 289 288 290
301 301 300 301 301 301 300 301 300 300 299 299 298 297 297 296 296 296 295 295 295 294 293 292 292 292 292 293 294 294 293 293 293 291 293 290 290 290 288 288 289 289 290

GFSMA_925_thetae_120.txt.gz
Theta_e
336 333 332 331 330 333 329 328 330 331 330 330 329 329 330 330 330 330 329 324 325 326 326 326 325 325 325 324 323 322 321 320 318 316 315 315 320 322 322 322 321 321 320
334 332 332 333 331 332 331 331 330 330 329 329 328 328 327 328 329 329 330 329 324 326 327 328 328 328 327 325 324 324 324 323 321 320 318 314 315 318 318 319 319 320 319
336 334 332 331 333 333 331 329 328 328 328 328 328 327 325 324 325 326 328 329 329 325 326 328 331 331 330 329 328 326 325 325 324 323 321 320 315 315 317 316 317 318 318
334 334 332 334 334 332 329 327 326 326 328 329 332 331 330 330 329 326 326 325 327 328 328 326 327 329 330 330 331 331 330 327 325 325 324 322 321 317 316 317 317 317 317
334 333 333 334 332 329 328 326 326 327 331 333 333 332 331 330 329 329 328 326 326 327 328 329 329 327 327 327 327 329 328 327 325 325 325 325 324 322 319 319 317 317 317
333 333 332 331 329 327 326 325 326 329 332 333 333 331 331 330 329 329 328 327 326 326 326 327 328 328 328 327 326 327 326 326 325 325 324 324 324 325 323 321 320 319 319
332 330 330 329 327 327 329 330 332 333 333 333 332 331 330 330 330 330 329 329 329 326 326 327 329 329 329 328 327 326 326 326 324 323 324 323 323 322 323 324 322 321 320
330 329 328 327 328 330 331 332 332 333 333 333 332 331 329 330 330 330 329 328 328 328 328 328 329 329 328 328 327 327 326 326 324 322 321 322 321 321 323 323 322 323 322
329 327 327 328 331 333 333 333 334 334 334 333 332 331 328 329 330 328 328 326 326 326 326 326 326 326 326 326 326 326 326 325 325 322 321 321 321 321 323 323 323 322 323
327 330 331 331 333 333 333 334 334 334 335 332 331 330 330 330 328 328 327 326 326 325 325 325 326 326 325 324 324 324 323 322 323 321 321 320 320 321 322 322 323 323 322
330 332 332 333 333 334 334 334 334 334 334 331 330 331 330 329 329 327 326 325 325 325 324 324 324 323 322 320 322 322 321 321 322 321 320 320 321 321 321 320 318 319 318
334 334 334 333 334 333 333 333 333 331 330 329 330 331 330 329 329 327 325 324 325 325 324 323 323 322 321 320 320 321 320 320 319 318 319 321 320 321 319 318 317 316 316
333 334 334 331 330 330 331 330 329 327 327 327 328 330 330 329 329 327 325 324 324 324 323 323 321 321 320 320 319 319 319 318 317 317 318 319 320 320 318 316 315 314 313
331 331 330 330 330 329 328 327 327 324 325 328 327 329 329 329 328 326 324 323 320 321 322 322 320 319 319 318 317 318 316 315 315 316 318 318 319 317 315 313 312 311 310
329 329 329 328 328 328 329 326 325 324 328 328 329 328 328 327 325 324 323 322 322 318 315 318 319 317 316 315 315 315 314 315 314 316 317 316 315 314 312 312 311 309 308
330 328 328 328 328 327 327 327 328 327 328 328 328 326 326 325 323 319 318 317 317 318 314 316 316 316 314 313 313 312 312 311 312 313 314 314 313 311 310 309 308 307 308
328 328 329 329 328 326 325 326 323 322 327 327 326 323 323 319 315 314 315 315 314 314 314 314 313 312 311 310 309 309 308 310 310 311 311 311 310 309 307 306 306 306 308
327 328 326 326 326 326 325 324 324 323 326 324 323 320 317 315 314 314 313 313 313 312 311 310 310 309 308 307 308 308 307 307 307 308 308 308 307 306 305 305 304 305 307
326 327 324 324 324 324 324 324 326 326 324 321 317 315 314 312 311 312 311 310 309 308 307 307 307 306 306 306 306 306 307 304 305 305 305 305 304 304 303 302 303 304 307
324 324 324 323 323 325 325 324 323 319 316 314 313 312 312 310 310 310 308 308 308 306 305 305 305 305 303 303 302 303 303 303 303 303 303 303 303 303 302 301 301 302 304
323 323 323 324 325 322 319 318 316 314 312 311 309 308 308 307 306 306 306 306 305 303 303 302 301 302 301 301 301 301 301 300 300 301 301 302 302 301 300 300 299 300 301
318 319 319 317 317 316 314 313 312 310 308 307 306 305 304 303 302 302 301 301 301 302 302 300 300 299 299 299 300 300 299 298 298 299 299 300 300 299 299 298 298 298 298
314 313 311 312 312 311 309 308 307 307 306 305 305 304 303 302 301 300 300 299 299 299 298 298 297 297 298 298 297 298 298 297 297 298 298 297 298 298 297 297 297 296 296
308 308 307 307 307 306 305 305 305 305 304 303 303 302 301 301 300 299 299 298 298 297 297 296 296 295 295 296 296 296 296 296 296 296 296 295 295 296 296 295 294 294 294
305 305 305 305 305 303 303 303 304 304 303 302 301 301 300 299 299 298 297 297 296 296 295 294 294 293 293 294 295 296 295 294 294 294 294 293 293 292 292 292 292 292 291
303 303 303 303 303 303 302 301 301 302 301 300 299 299 298 298 297 297 296 296 295 295 293 293 292 291 292 292 293 294 294 293 293 293 294 292 291 291 290 290 289 289 290

GFSMA_925_thetae_123.txt.gz
Theta_e
335 334 333 332 327 326 326 329 331 331 331 330 330 329 329 329 330 330 326 324 325 326 326 326 326 325 324 324 323 322 321 320 319 317 316 317 321 322 322 322 321 321 320
336 333 332 332 329 327 326 329 331 330 330 329 328 328 329 329 329 329 329 327 324 325 326 327 327 327 327 325 324 324 324 323 322 321 319 315 316 318 318 316 317 319 319
336 332 331 330 329 330 328 330 330 329 329 328 328 327 325 326 328 328 328 329 328 326 324 326 329 330 330 328 327 326 325 324 324 323 322 321 318 315 316 316 317 317 315
335 332 331 330 331 332 331 330 328 329 328 328 328 327 325 327 325 325 325 326 326 328 328 327 326 328 329 330 331 329 329 327 326 325 324 324 322 320 316 316 316 316 314
335 332 331 329 332 332 330 328 327 327 327 329 332 331 331 330 330 329 326 326 325 327 327 328 329 327 327 327 327 328 328 328 326 325 324 324 325 324 321 320 317 317 316
333 333 330 330 333 331 329 327 326 326 330 333 332 331 331 330 328 329 328 327 326 326 326 326 327 328 328 327 326 326 327 326 326 324 324 323 323 323 324 323 321 320 319
333 334 331 333 332 329 327 327 325 327 331 333 332 330 329 330 329 329 328 328 327 326 326 326 327 328 328 328 327 326 326 327 326 324 323 322 322 322 323 322 323 322 321
333 332 332 332 331 328 326 325 325 332 333 333 331 330 328 329 329 330 330 329 328 328 328 328 328 328 328 328 328 326 326 326 325 323 322 322 322 322 323 323 324 322 323
333 332 331 330 329 327 326 328 331 332 333 333 331 330 326 327 328 327 328 327 326 326 326 326 326 326 326 326 326 325 325 325 324 322 322 321 322 323 323 323 322 323 320
332 331 330 329 327 327 330 331 332 332 334 332 331 331 329 329 324 327 327 326 326 325 325 324 325 325 325 325 322 323 323 322 322 322 322 323 323 322 323 323 322 320 320
330 329 328 327 327 330 332 332 334 334 334 331 331 329 330 329 329 325 322 325 324 325 325 323 322 322 322 321 320 321 321 320 320 321 320 321 323 322 322 321 320 319 317
329 327 327 327 330 333 332 333 334 333 334 333 330 330 329 328 327 327 325 323 323 325 324 323 322 321 321 320 319 319 319 319 319 319 319 320 322 320 320 319 317 316 315
328 330 330 330 333 333 333 334 333 333 332 330 329 330 330 329 329 328 326 323 322 324 323 322 321 320 319 318 317 317 318 318 318 317 318 319 320 319 319 318 315 314 313
328 329 332 332 333 333 333 332 332 330 327 327 328 329 329 329 329 328 325 323 319 320 321 320 319 318 317 315 315 314 315 316 315 316 316 319 319 320 319 316 314 314 313
331 333 333 333 333 333 331 331 328 326 325 328 328 329 329 328 327 325 325 324 321 316 313 317 317 316 315 315 313 313 313 313 314 314 316 316 317 316 315 315 313 312 310
332 333 333 332 330 330 329 327 327 325 327 328 328 327 327 326 324 324 322 321 319 318 313 315 315 314 312 311 310 310 311 310 311 311 313 314 314 313 313 312 311 308 307
331 331 331 330 330 328 328 326 326 326 327 327 327 327 325 324 323 319 316 316 315 314 313 313 313 311 310 309 308 307 308 307 308 309 310 311 311 311 311 309 308 307 306
328 329 329 329 328 328 328 325 325 325 326 326 326 327 324 321 316 314 314 314 313 313 313 311 310 309 308 306 306 306 307 307 307 307 308 308 308 308 306 306 305 304 305
328 328 328 328 327 327 324 324 324 325 324 324 323 325 321 317 314 313 313 312 312 311 309 308 307 306 306 305 304 303 303 304 305 306 306 306 306 305 304 304 304 303 304
326 327 327 328 327 326 325 325 324 323 324 324 324 322 317 314 312 311 311 309 308 307 306 305 305 305 304 303 302 301 301 301 303 304 304 304 304 304 304 303 302 302 303
324 325 325 326 324 324 325 324 323 324 324 318 316 315 313 312 310 309 308 307 307 306 304 303 302 301 301 300 300 300 300 300 301 302 302 302 303 303 303 302 301 301 301
324 324 324 323 322 323 323 324 324 323 317 316 313 311 309 308 306 305 305 304 304 304 303 301 301 300 299 299 299 299 298 298 299 301 299 300 301 301 301 300 300 300 299
318 318 319 318 316 316 317 318 318 315 314 312 310 307 305 303 303 303 302 301 300 300 299 300 299 299 297 298 298 297 296 296 297 299 298 298 299 299 299 299 299 298 297
313 313 313 312 311 308 310 311 311 311 309 307 305 304 304 303 302 301 301 300 299 299 298 297 297 297 296 296 296 295 294 295 296 296 296 296 297 297 298 297 297 296 296
307 306 307 307 308 305 305 306 306 306 305 304 303 302 302 302 301 300 299 298 298 297 296 296 295 295 294 294 294 294 294 294 294 295 295 294 295 294 294 295 295 294 294
306 306 305 305 304 304 303 304 303 303 302 301 301 300 300 300 299 298 298 297 297 296 295 294 294 293 292 292 292 293 293 294 293 294 294 293 292 292 291 292 292 292 292

GFSMA_925_thetae_126.txt.gz
Theta_e
336 334 331 325 318 319 320 321 320 327 329 330 329 329 329 329 329 327 323 324 324 325 325 325 325 324 324 324 323 322 321 320 319 318 315 316 319 320 320 320 321 320 321
335 334 332 326 319 319 323 327 330 331 330 330 330 328 329 329 329 328 328 327 324 325 325 327 327 327 326 325 324 323 323 323 322 321 320 317 316 317 318 319 318 317 319
335 333 332 328 322 323 327 330 330 330 329 328 328 328 328 329 329 328 328 328 327 326 325 326 328 329 329 328 327 325 324 324 324 324 323 321 320 317 317 317 317 316 315
334 333 332 331 326 325 326 329 330 330 328 328 327 327 325 325 326 326 326 327 327 327 327 326 326 329 331 330 331 330 329 328 328 326 324 324 323 322 320 318 317 316 316
334 333 331 330 326 327 326 329 329 329 328 328 327 326 326 327 326 327 325 325 326 326 327 327 328 327 327 327 328 330 328 327 327 326 325 324 324 324 323 322 321 318 318
335 333 331 329 327 331 329 330 328 328 327 328 332 330 330 330 329 328 327 326 326 326 327 326 326 327 328 327 327 326 327 327 327 325 323 323 322 322 322 324 323 322 321
335 332 331 327 329 332 331 329 327 326 328 331 331 330 330 329 329 329 328 327 326 325 325 326 326 327 327 327 327 327 326 326 326 326 324 323 322 322 322 323 322 322 323
334 332 331 328 331 332 331 327 326 327 330 332 331 329 327 328 328 328 328 328 328 327 327 327 327 328 328 328 328 327 326 326 326 325 324 323 322 322 324 324 323 323 323
333 332 331 328 330 332 329 327 326 326 331 332 332 329 325 326 327 327 327 327 326 326 326 326 326 326 325 326 326 325 324 324 323 322 324 323 323 323 321 323 322 321 321
333 332 332 330 330 330 329 327 325 326 332 331 330 330 329 329 325 327 326 326 325 325 324 324 323 324 324 324 322 321 322 322 321 321 324 325 323 324 322 322 322 321 320
332 332 332 331 330 329 330 327 325 326 332 332 331 330 328 328 327 323 321 323 325 324 325 323 323 322 321 321 320 319 320 321 320 320 320 321 323 322 322 321 320 318 318
330 332 331 330 330 331 329 326 327 331 331 332 331 330 329 328 327 326 321 323 322 324 323 323 321 320 320 320 319 318 318 318 319 319 320 320 321 322 320 319 319 317 315
329 329 330 330 330 329 327 328 331 332 333 333 331 330 329 328 327 327 325 322 320 322 322 321 320 320 319 318 316 315 315 316 317 317 317 319 320 320 319 318 318 316 315
329 329 330 329 328 327 328 331 332 333 333 333 331 330 330 329 328 328 326 322 317 319 320 319 318 318 316 315 314 314 313 313 315 314 315 317 319 318 318 317 315 315 314
328 329 328 327 327 327 331 332 333 333 332 330 328 328 329 329 328 328 326 325 321 315 313 316 316 315 315 314 313 313 311 311 311 312 313 314 315 316 316 315 314 312 312
329 328 328 327 328 330 333 333 333 332 329 327 327 328 328 328 327 326 325 324 323 319 312 315 315 314 313 311 309 307 308 308 309 309 310 312 313 313 313 313 312 311 311
329 329 329 330 331 331 333 332 332 329 326 327 328 328 328 326 324 324 323 322 320 318 314 313 313 312 310 308 307 306 307 307 308 308 307 309 310 310 310 309 309 309 307
328 328 329 331 331 332 331 331 329 326 326 327 327 327 325 323 324 321 319 316 314 313 314 311 311 309 308 306 305 305 306 306 306 307 307 307 307 308 307 307 307 306 305
328 328 329 330 329 329 329 329 327 325 326 327 326 325 323 323 320 316 315 314 313 313 312 310 308 307 306 305 304 302 301 302 304 304 305 305 306 306 306 305 305 304 304
327 327 327 326 327 328 327 327 326 326 324 326 325 325 324 322 321 318 314 313 312 312 310 308 306 305 305 304 302 301 301 299 301 302 303 304 305 305 305 304 304 303 302
327 326 326 327 326 326 327 328 325 324 324 324 323 323 323 321 320 319 312 311 310 308 307 305 304 303 302 301 300 299 299 299 299 301 302 302 303 303 304 303 303 302 302
324 324 324 325 326 327 326 325 325 325 323 323 321 320 318 317 313 311 310 309 308 307 306 304 303 301 301 300 299 299 298 296 298 299 300 301 301 302 302 302 302 301 300
319 321 322 323 324 324 323 323 323 322 322 319 318 315 313 310 309 309 308 306 305 304 303 303 302 301 300 299 298 298 297 296 296 296 297 298 299 300 301 301 300 300 299
313 313 312 314 314 314 312 312 313 314 312 312 312 312 311 308 306 304 303 302 301 300 300 299 299 299 298 297 297 296 295 295 295 295 296 295 297 298 299 299 299 298 298
308 308 308 308 309 308 307 308 309 310 310 308 307 306 305 304 302 301 302 301 299 299 298 297 296 296 296 295 295 293 293 294 294 295 296 294 296 295 296 297 297 297 296
305 305 305 305 306 305 304 305 305 306 304 303 302 302 302 302 301 301 300 299 298 297 296 295 295 294 293 293 293 293 293 294 294 294 294 293 293 293 293 293 294 294 294

GFSMA_925_thetae_129.txt.gz
Theta_e
337 337 334 330 320 315 317 319 323 327 327 327 328 328 328 328 325 323 323 324 325 326 327 326 325 325 324 323 322 322 321 321 320 319 317 316 317 318 318 318 320 319 321
336 335 333 328 319 315 319 319 324 327 327 328 329 328 328 328 328 327 326 325 324 325 326 327 328 327 326 325 324 323 323 323 322 322 321 320 318 317 317 317 317 317 318
335 334 333 327 319 316 319 320 322 326 329 330 329 328 328 329 329 328 328 327 326 325 325 327 330 330 330 330 329 327 325 324 324 324 323 323 322 321 319 317 317 316 315
335 334 333 328 319 318 321 323 326 330 329 328 328 328 328 328 329 328 328 327 327 326 326 326 326 328 329 329 330 330 329 329 327 327 326 324 324 323 322 321 320 318 317
335 334 333 330 320 319 323 328 330 330 328 327 326 325 324 325 325 325 326 326 326 326 327 326 327 327 327 327 327 327 327 327 327 326 325 324 323 324 324 324 323 322 321
335 334 333 331 322 322 325 328 329 329 328 327 326 326 326 326 325 328 327 325 325 325 326 327 326 326 326 327 327 327 327 327 327 326 325 324 322 321 323 322 323 324 323
334 334 332 331 326 324 325 326 328 329 327 328 330 328 328 328 327 327 327 326 326 325 326 325 325 326 326 327 327 327 327 326 327 326 325 324 323 322 324 324 323 321 320
335 333 332 331 329 326 327 326 329 326 327 328 330 328 326 327 328 327 327 327 327 326 325 326 326 327 327 327 327 327 326 326 325 324 324 323 322 322 322 323 324 323 322
334 333 331 330 330 327 328 328 329 326 328 330 331 329 324 326 325 327 327 327 327 327 327 326 325 325 325 325 325 325 324 324 323 323 323 323 323 323 323 323 321 322 320
334 332 331 330 329 327 329 330 329 326 327 330 330 329 328 328 324 326 325 325 324 324 324 324 323 323 324 324 324 321 322 321 321 321 322 322 322 324 323 322 322 320 317
334 332 331 330 329 327 329 331 328 326 326 329 331 329 328 327 326 323 323 323 324 325 323 323 322 322 321 321 320 319 319 320 320 320 320 323 322 322 322 322 320 319 316
331 331 331 332 329 328 329 330 328 326 326 327 330 330 329 327 326 324 320 321 322 323 323 323 321 321 320 320 319 318 318 318 318 318 319 321 320 320 321 320 319 317 315
331 331 331 329 328 327 329 330 328 327 325 330 331 331 330 328 327 326 324 321 320 321 322 321 320 319 319 318 317 316 314 314 314 316 319 319 319 319 320 319 318 316 315
331 330 330 329 328 328 329 330 329 327 325 328 331 331 330 330 328 326 326 322 317 318 319 319 318 318 318 317 315 315 314 313 312 314 314 313 316 317 318 317 316 314 314
330 329 330 330 328 329 330 330 329 327 327 330 332 331 330 329 327 327 327 325 322 316 314 316 317 317 316 315 314 312 310 310 309 311 311 312 313 314 315 314 314 312 311
329 329 329 327 328 329 330 329 328 327 330 332 333 332 329 329 328 328 327 326 324 321 314 316 315 316 315 313 311 309 307 307 308 308 309 310 311 312 312 312 311 310 309
329 329 328 328 328 329 329 328 328 330 331 332 332 330 328 328 328 328 327 325 324 323 314 313 314 315 314 311 309 308 307 306 307 307 307 307 308 309 310 309 308 308 307
329 329 329 328 329 328 328 328 330 331 332 331 330 327 327 328 327 327 325 324 323 322 319 311 312 313 312 310 308 306 305 305 306 306 306 306 306 307 307 307 306 305 305
328 328 329 328 328 328 328 329 331 330 330 331 327 326 327 327 326 325 323 323 321 316 314 312 310 310 309 307 305 304 302 301 301 304 304 304 304 305 306 306 305 304 304
328 328 327 327 328 328 328 329 329 328 327 327 326 326 327 327 326 324 322 319 315 313 312 311 309 308 307 305 304 302 301 300 300 301 302 303 303 304 305 305 304 303 303
327 327 327 327 327 327 327 326 326 326 325 326 325 325 325 326 325 323 319 315 313 312 311 310 306 304 304 303 302 301 300 299 299 300 301 302 302 303 304 304 304 303 302
323 326 325 325 325 325 325 325 325 324 325 325 325 324 325 325 324 323 318 316 313 311 311 309 305 303 302 302 301 300 299 297 297 299 299 300 300 302 302 303 303 302 301
318 319 319 323 323 323 324 324 323 323 322 323 323 324 324 321 318 316 315 313 311 310 309 308 306 304 302 302 300 299 298 297 297 297 295 297 298 299 300 301 301 301 301
316 315 313 313 312 311 313 315 316 314 316 316 317 315 315 314 312 311 309 308 307 307 306 305 304 303 302 300 299 299 298 296 295 295 295 295 296 297 298 299 300 300 299
311 312 311 311 313 312 312 309 310 310 308 307 307 308 308 309 308 307 307 306 304 303 301 300 299 299 298 298 297 297 295 294 294 295 295 295 295 296 297 298 297 298 298
303 304 304 305 306 306 305 307 307 307 307 305 305 304 306 305 304 303 302 301 300 300 298 297 296 296 296 296 295 295 294 293 294 294 294 294 294 295 294 294 295 295 295

GFSMA_925_thetae_132.txt.gz
Theta_e
338 336 334 330 326 322 316 320 327 328 328 327 327 328 328 326 322 323 324 325 326 327 327 327 325 324 324 323 323 322 322 321 321 320 319 318 317 317 318 317 318 318 321
337 336 334 331 324 319 315 317 325 327 327 327 327 328 328 328 326 325 324 324 325 325 326 328 328 329 328 326 325 323 322 323 323 322 322 321 321 320 319 317 317 317 316
338 336 335 333 328 318 316 318 323 326 326 327 328 328 328 328 328 327 326 326 325 325 325 326 330 329 330 330 330 329 326 326 325 326 325 324 323 322 322 321 319 318 316
338 337 335 334 329 318 318 319 322 325 326 328 329 328 328 328 328 328 327 327 327 326 326 326 327 328 329 328 329 329 328 328 328 328 327 326 325 324 323 323 323 321 320
337 335 333 335 330 319 319 320 321 325 328 329 328 328 328 328 328 328 327 326 326 326 326 326 326 326 327 327 327 327 327 327 327 326 325 324 323 322 322 323 323 323 323
337 336 334 333 330 321 319 321 320 325 329 327 326 325 324 325 326 325 325 326 326 326 326 326 326 326 325 326 327 326 327 327 327 326 325 324 323 321 322 321 323 322 322
336 336 334 333 332 323 318 321 324 329 328 326 325 325 325 326 324 326 327 327 325 325 325 326 325 325 325 326 326 326 326 327 327 326 325 324 323 322 323 323 324 322 323
336 335 334 332 331 325 320 322 326 328 328 326 327 327 325 327 327 327 326 326 326 325 325 325 325 326 326 327 327 327 326 326 325 324 323 322 322 322 323 322 323 321 322
334 335 334 332 331 327 322 322 327 328 327 326 329 329 323 325 325 326 326 326 327 327 327 326 326 326 325 325 325 325 324 323 323 323 323 322 322 322 323 323 322 322 319
334 333 333 332 332 328 325 323 325 327 327 326 328 329 328 327 324 324 325 325 326 326 325 324 324 324 323 324 324 323 321 321 321 320 322 322 322 322 323 322 321 320 318
333 334 333 332 331 329 328 325 325 325 327 327 329 328 327 327 326 323 323 322 323 323 324 323 322 322 322 321 321 320 319 319 320 319 320 322 321 321 323 322 320 319 317
331 334 333 331 331 330 329 327 325 325 327 327 327 330 329 327 325 322 319 320 322 323 323 323 322 322 321 320 320 319 318 318 317 317 319 320 321 320 320 322 319 318 317
330 331 332 330 330 331 330 328 327 327 328 327 327 329 330 329 328 326 323 320 319 320 322 322 321 321 320 319 318 318 316 314 313 313 317 318 318 318 321 320 318 317 315
329 329 331 330 330 330 328 328 327 327 329 328 327 327 329 330 329 327 325 322 316 317 319 319 320 319 319 318 317 316 314 314 313 310 313 314 314 315 316 317 316 315 315
327 329 331 330 330 330 329 326 326 327 328 327 327 327 328 330 330 328 327 325 322 317 318 318 318 318 318 316 315 315 314 311 309 310 310 311 311 312 313 314 314 313 313
328 329 331 331 330 329 327 327 326 327 328 327 327 327 328 330 330 329 328 326 325 322 317 319 317 318 317 315 314 314 311 308 307 308 308 308 308 309 310 311 312 311 311
328 329 329 329 328 328 327 327 327 327 328 327 327 327 329 331 329 328 327 327 325 323 318 315 317 317 315 314 314 311 309 307 306 306 307 306 307 307 308 309 310 310 309
328 329 329 329 328 328 326 327 327 327 328 327 326 328 331 331 329 329 328 327 326 324 322 316 314 314 313 313 314 310 308 306 305 306 306 306 305 306 307 307 308 308 307
328 328 328 328 328 328 327 327 327 327 328 327 327 329 331 331 329 327 327 326 325 324 322 318 312 311 310 310 309 309 306 304 302 302 303 305 305 305 305 306 306 306 305
328 328 328 323 326 328 328 327 327 327 327 327 326 327 329 330 327 326 326 326 325 324 321 315 310 309 308 308 307 306 305 303 302 301 301 302 303 303 304 305 305 305 304
327 327 327 327 327 327 326 326 325 323 325 326 327 327 328 328 327 326 325 324 324 321 316 312 308 306 306 305 305 305 304 302 300 300 300 301 302 302 303 304 304 304 303
326 326 326 326 325 325 325 325 324 324 325 325 324 324 325 325 325 325 326 323 324 319 313 309 307 306 305 305 305 304 302 299 297 298 299 300 301 301 302 303 303 303 302
322 322 319 323 322 323 323 324 324 323 323 323 323 323 323 324 324 324 323 324 322 318 315 312 307 308 306 306 305 302 300 299 298 297 297 297 297 299 300 301 301 301 301
315 315 313 312 313 311 313 317 319 319 318 318 317 317 317 316 318 318 317 314 310 310 311 310 309 308 306 304 303 302 301 298 297 296 296 295 296 297 298 299 300 300 300
306 306 306 307 309 309 311 313 313 314 313 312 312 310 308 307 308 310 309 308 308 307 307 307 305 304 303 302 301 299 298 296 294 294 295 295 295 296 297 298 298 299 298
302 303 303 303 304 305 305 306 306 306 305 305 305 306 308 307 305 306 306 305 304 302 302 302 301 300 299 300 299 298 297 295 294 294 295 295 295 296 294 294 295 296 296

GFSMA_925_thetae_135.txt.gz
Theta_e
338 337 336 335 334 326 323 324 327 328 328 327 327 327 326 322 322 323 326 327 328 328 328 326 325 324 324 323 323 322 322 321 321 321 320 320 319 319 319 318 318 319 321
338 337 335 335 334 331 322 321 326 327 327 327 327 327 327 326 322 323 323 325 325 326 327 329 330 329 328 328 326 323 322 322 323 324 323 322 322 321 321 320 319 318 317
338 337 335 334 332 330 323 319 326 327 327 326 327 327 327 327 327 325 325 325 325 325 326 328 330 329 329 331 331 330 329 327 328 327 326 325 324 324 323 322 322 321 319
337 337 335 333 331 325 321 318 323 326 326 326 326 327 327 328 327 327 326 326 326 325 326 326 326 328 329 328 328 329 327 328 328 328 328 327 325 324 323 323 323 323 322
337 335 334 334 333 328 321 318 320 325 325 326 327 328 327 327 328 328 327 327 326 326 326 326 326 326 326 326 327 326 327 327 327 326 326 324 324 322 321 321 322 323 323
337 334 335 334 334 330 323 319 320 322 325 326 328 327 326 327 327 327 327 327 326 326 326 326 326 326 326 325 326 326 327 327 326 326 325 324 323 322 321 321 321 320 320
337 335 334 334 334 333 326 318 320 322 324 327 325 324 324 323 324 326 324 325 326 326 325 325 325 325 325 325 326 326 327 327 327 326 325 323 323 322 322 322 323 323 321
336 336 333 334 334 332 326 320 320 322 325 327 326 326 329 327 326 324 325 326 326 325 325 325 325 325 325 326 326 326 326 326 326 325 324 322 322 322 323 323 322 321 321
336 336 334 333 333 331 327 323 320 322 325 326 326 328 329 331 328 326 326 326 326 326 325 325 325 326 326 326 326 326 325 325 324 324 323 322 322 322 324 322 322 322 320
335 336 335 334 333 331 327 327 320 322 326 327 326 327 327 327 331 329 324 325 326 326 326 326 326 325 324 324 324 324 324 322 322 321 322 322 322 322 324 323 323 321 319
335 334 334 333 332 331 330 328 322 322 326 327 327 327 326 326 326 327 327 325 323 325 325 324 324 324 323 323 323 323 321 320 320 320 320 322 322 321 323 324 323 320 318
330 332 333 333 332 331 331 330 328 321 324 327 326 327 327 327 326 324 325 324 324 323 323 323 323 323 322 321 321 320 319 319 319 318 317 320 320 320 321 322 322 319 317
329 331 331 332 332 331 331 328 327 326 322 325 327 327 327 327 327 327 324 323 325 321 322 323 322 322 322 321 320 319 318 318 316 314 314 317 317 318 318 320 320 318 317
327 328 330 332 331 331 330 328 328 328 324 324 325 327 327 327 328 328 326 323 322 320 318 320 322 322 321 320 318 318 316 315 314 313 311 311 312 314 317 317 317 317 315
326 327 330 332 332 331 330 329 328 328 326 323 325 326 327 327 327 328 329 327 326 326 323 320 320 321 321 319 319 317 316 315 314 310 308 310 310 312 313 314 314 314 314
326 327 327 329 330 330 329 329 328 326 324 325 326 326 327 327 327 327 329 328 326 326 327 322 320 321 319 318 317 316 315 314 311 309 307 308 308 308 309 311 311 311 311
324 325 327 327 327 330 329 328 328 327 326 326 326 327 327 327 326 326 327 327 325 324 324 321 320 319 318 317 316 314 313 312 309 307 307 307 306 306 307 308 309 309 310
323 324 325 327 328 329 329 328 327 326 326 326 325 326 326 327 327 327 327 327 327 324 322 322 316 316 316 314 313 314 312 310 308 306 306 306 306 306 306 306 307 307 308
321 323 325 327 328 329 329 327 327 327 326 325 324 325 326 326 326 326 326 326 325 323 320 320 317 315 315 312 312 311 309 308 307 304 304 303 305 306 305 305 306 306 306
322 324 326 327 328 328 327 327 327 327 323 321 325 326 326 326 326 326 325 325 325 321 319 319 316 313 311 309 310 308 307 307 305 303 302 302 302 304 304 304 305 305 305
323 324 327 327 327 325 327 327 326 325 326 325 326 325 325 325 324 324 325 324 322 320 318 316 313 311 308 307 307 306 306 305 304 302 301 301 301 302 303 303 305 305 304
323 324 325 323 324 325 325 325 325 325 324 321 320 320 323 324 324 324 324 323 323 322 319 317 315 311 309 307 307 307 305 301 300 301 300 300 300 301 302 303 303 304 304
322 321 319 320 321 323 323 323 323 322 323 324 323 323 323 322 322 321 322 322 321 321 320 318 316 311 311 308 308 305 303 301 300 299 299 298 299 300 301 302 303 303 303
307 307 308 306 310 312 317 320 321 321 320 319 319 319 318 318 317 314 314 313 314 312 311 314 315 313 310 308 308 307 304 301 299 298 298 297 297 297 298 300 301 301 301
306 306 306 306 306 305 306 309 310 310 308 308 308 307 308 310 312 312 309 307 304 304 304 306 306 305 305 305 305 303 300 298 295 296 297 296 296 296 296 297 298 299 300
302 302 302 302 302 301 301 304 305 305 305 305 305 305 305 305 304 306 308 308 305 306 306 305 305 304 303 301 301 301 301 299 295 294 296 295 295 295 295 296 297 297 298

GFSMA_925_thetae_138.txt.gz
Theta_e
341 340 339 338 337 334 331 332 329 330 330 329 329 328 326 327 328 329 330 328 330 330 330 329 326 325 324 323 322 321 321 321 321 321 321 321 321 320 320 320 319 319 320
341 340 339 337 336 334 330 330 327 328 329 328 329 329 328 326 327 328 329 328 327 328 328 330 330 330 329 327 325 323 322 322 323 324 324 323 323 323 322 322 321 320 320
341 339 339 337 336 334 330 327 326 327 328 328 328 328 329 328 327 328 328 329 328 326 326 329 330 329 330 331 331 331 330 329 327 327 326 326 325 325 324 323 323 322 322
341 340 339 337 336 334 332 327 325 326 327 327 328 328 328 329 329 329 329 329 329 329 327 326 327 329 330 330 328 330 328 327 329 328 328 328 327 326 324 325 325 324 324
339 339 338 337 336 334 331 327 324 324 326 327 328 328 328 329 330 329 329 329 329 329 329 329 326 326 326 327 327 327 326 327 327 327 327 327 326 323 322 322 322 322 323
338 338 337 337 336 334 330 326 322 323 325 326 327 327 328 329 329 330 330 329 329 329 329 329 328 327 326 326 325 326 326 327 327 326 326 324 324 323 322 323 323 322 321
338 338 337 336 335 334 332 327 322 322 324 326 327 327 328 328 328 329 329 329 328 328 328 328 328 328 327 325 325 326 327 328 327 327 326 325 323 323 322 323 324 324 321
339 338 336 335 335 335 334 330 324 322 323 326 327 327 330 329 328 327 327 326 326 327 327 327 327 327 327 328 328 326 326 327 327 327 325 323 322 322 323 323 324 323 321
336 336 336 335 335 334 334 331 326 323 323 325 326 327 329 330 329 328 327 327 327 328 327 326 326 326 326 327 326 326 326 326 325 327 324 323 323 324 324 325 323 323 321
336 336 336 335 334 334 332 329 325 323 323 326 327 328 329 330 331 332 328 328 328 328 327 326 325 325 326 327 326 326 325 324 324 323 324 323 322 322 324 324 324 324 320
334 335 336 335 334 333 332 330 327 324 323 325 328 328 329 329 330 330 332 328 327 326 327 327 326 325 325 324 324 324 324 324 322 321 321 322 323 323 323 324 325 324 321
330 334 334 333 334 332 330 330 330 327 323 324 326 327 329 330 329 329 330 328 328 326 325 325 324 324 324 323 322 322 322 322 321 320 319 319 322 321 322 322 323 323 321
327 330 332 333 333 333 331 330 329 329 325 324 325 328 329 329 328 328 328 329 328 327 324 324 323 323 322 322 321 322 321 320 320 319 318 321 319 318 316 319 321 321 320
322 327 328 331 332 332 331 330 329 327 325 325 324 326 327 328 328 328 328 328 328 327 324 325 322 322 321 322 321 322 320 319 319 317 314 316 313 313 315 316 319 319 319
319 322 327 330 330 331 331 330 329 328 326 326 325 325 326 326 327 328 328 328 328 331 329 324 323 324 322 322 322 321 319 318 317 314 314 312 311 310 313 315 316 316 314
317 320 325 328 330 330 331 330 329 328 328 327 326 325 324 324 326 327 328 328 327 328 330 328 324 323 321 321 320 319 318 316 315 314 314 310 309 308 310 312 312 313 313
317 320 323 326 328 330 330 329 329 329 328 328 327 326 325 324 324 327 328 328 327 327 328 328 325 322 320 321 319 317 314 313 313 311 309 308 308 308 307 307 309 309 310
317 318 321 322 325 326 328 328 329 329 329 327 327 325 325 324 325 326 327 327 326 326 325 327 324 320 320 320 320 318 316 313 311 309 308 307 307 307 306 306 307 308 309
316 317 319 320 322 324 327 328 328 328 328 327 326 326 326 326 326 327 327 326 325 325 324 324 324 319 316 316 314 313 313 314 311 310 308 306 306 306 306 306 305 305 306
318 317 319 320 322 324 326 327 328 328 327 327 326 327 326 326 326 325 324 322 323 323 322 321 321 317 315 314 312 309 309 313 313 311 309 306 304 303 304 305 305 305 305
319 319 320 321 323 324 326 327 327 327 327 327 326 326 325 324 324 324 323 323 323 323 321 319 319 313 311 308 307 311 309 308 308 312 309 305 302 302 302 303 304 304 304
320 321 323 324 324 324 326 327 327 327 326 325 324 323 323 321 320 322 323 323 323 322 321 320 319 316 314 312 312 311 309 304 303 309 305 303 301 300 301 302 303 303 305
318 314 315 318 314 322 322 321 324 323 321 322 322 322 322 321 321 320 320 320 321 321 319 319 318 318 317 317 313 309 306 307 308 306 302 300 301 299 300 301 302 303 304
309 305 306 307 309 310 318 320 320 318 313 313 313 312 312 311 311 314 315 316 316 315 314 316 315 314 313 312 309 306 304 303 301 301 299 300 298 299 299 299 301 302 303
302 302 302 302 303 303 308 311 313 311 309 307 307 307 307 307 307 306 306 307 307 308 307 309 309 309 309 309 308 304 301 299 296 296 297 298 297 297 297 297 298 301 301
299 299 300 301 301 301 302 304 306 305 304 303 304 304 304 305 305 304 303 302 301 301 301 302 304 305 306 306 306 306 305 300 297 295 297 297 296 297 298 295 296 297 299

GFSMA_925_thetae_144.txt.gz
Theta_e
341 341 339 340 338 337 333 332 333 330 331 331 327 326 326 327 328 330 331 326 324 327 327 326 325 324 323 323 322 322 322 321 322 323 323 324 323 323 323 323 324 324 324
341 341 340 339 338 337 334 332 331 332 331 330 328 327 326 326 327 328 330 330 325 325 325 328 330 329 327 328 328 326 326 324 324 324 325 326 326 326 325 325 325 325 324
340 341 340 339 338 336 337 333 331 330 330 330 328 328 327 326 326 327 328 330 329 324 324 325 331 331 329 331 332 332 332 332 331 330 330 329 328 327 327 326 326 325 325
341 340 341 340 339 336 336 333 331 331 328 329 328 328 328 328 327 326 327 328 329 330 328 323 323 327 330 331 330 332 331 329 328 327 327 328 329 328 328 325 322 322 323
341 341 340 340 339 338 336 334 331 330 326 328 328 328 328 328 328 328 327 328 329 330 330 329 329 326 325 326 327 326 327 329 328 326 326 326 327 327 325 323 323 323 323
341 341 340 340 339 338 337 335 331 328 326 326 328 327 327 327 328 328 328 329 329 329 329 329 330 329 328 325 325 325 325 326 327 326 326 326 325 324 324 323 323 324 325
339 340 340 339 338 338 337 335 333 328 326 326 327 327 327 328 328 328 329 329 329 329 329 329 329 329 329 329 327 326 325 325 329 327 327 326 326 325 324 322 323 325 325
336 338 339 339 339 338 337 335 334 330 327 325 326 327 325 327 328 328 329 330 330 330 329 329 329 329 329 329 328 328 326 324 327 330 329 328 326 325 323 323 324 326 325
335 337 338 339 339 338 337 335 334 331 326 325 325 327 325 325 326 328 328 329 330 330 329 329 329 329 329 328 328 327 327 326 326 327 330 328 327 326 324 325 326 325 325
326 335 337 338 338 338 337 336 334 331 327 323 324 326 327 327 324 327 328 328 329 329 328 327 327 328 327 328 327 328 327 326 326 326 327 328 327 326 326 325 325 325 324
321 327 335 336 336 337 337 336 335 333 327 324 323 324 326 327 328 328 327 327 328 328 327 327 328 328 328 327 327 326 326 326 326 325 324 327 328 326 325 325 325 324 323
316 326 328 330 334 336 336 336 336 335 330 326 324 325 326 326 328 329 326 326 327 329 329 328 328 329 328 327 326 326 326 326 326 324 324 326 327 326 324 325 325 324 323
314 317 323 330 332 331 335 335 335 335 334 327 326 325 326 326 326 328 329 327 327 328 328 328 327 326 326 327 327 326 326 326 326 324 323 324 326 324 323 322 321 321 322
314 315 322 322 328 329 330 332 333 334 334 330 326 325 326 327 327 327 328 327 326 326 327 328 327 326 325 325 325 325 325 326 326 325 323 322 323 322 322 321 319 316 315
313 315 319 322 323 324 326 329 329 332 331 330 327 326 325 326 327 327 328 327 326 326 326 326 326 327 326 325 325 325 325 325 326 325 323 321 320 319 319 320 318 313 311
313 314 314 315 318 323 324 326 327 327 328 329 328 326 326 325 325 326 327 327 326 327 326 323 323 325 326 326 326 325 325 324 324 323 322 322 321 319 318 317 314 313 310
312 313 314 314 314 315 321 323 324 326 328 328 328 327 326 326 326 326 326 327 327 327 326 326 325 324 324 326 325 324 323 322 323 322 321 321 322 319 319 316 315 314 312
312 312 313 313 313 313 315 320 323 325 326 327 328 327 327 326 326 326 326 326 326 326 326 326 325 324 324 326 326 324 323 322 322 322 322 321 321 319 318 316 316 316 314
312 313 314 314 315 315 314 317 321 322 326 327 328 328 327 327 327 327 326 326 325 325 326 326 326 325 325 324 323 322 322 321 321 321 321 319 322 319 318 319 317 316 314
316 317 317 317 316 316 317 318 321 322 322 326 326 328 328 326 327 327 327 326 325 324 324 325 325 325 321 320 319 320 317 318 319 319 318 317 321 320 318 317 318 317 317
317 316 316 316 316 316 317 316 318 320 322 323 323 325 324 325 326 327 326 325 325 324 324 324 321 321 318 318 318 318 315 316 316 316 315 319 320 318 315 314 313 315 316
314 314 314 314 315 315 316 317 317 318 320 321 322 322 324 325 325 326 326 325 325 323 321 320 320 319 319 317 318 317 314 312 312 315 316 313 313 311 313 310 311 315 315
311 311 312 313 311 314 316 317 319 321 323 325 325 325 322 319 321 319 320 319 319 319 317 315 313 314 311 314 311 313 313 314 314 313 312 307 309 308 309 308 307 307 307
306 306 305 306 306 307 311 316 318 319 318 314 313 311 311 311 311 313 312 311 310 309 309 307 306 305 305 306 307 305 306 307 309 309 307 302 306 306 307 306 306 305 305
301 301 301 301 303 304 305 308 309 305 304 303 304 304 304 304 304 306 307 306 305 304 303 303 303 303 303 304 304 304 302 301 302 303 305 302 303 302 302 302 302 301 302
299 299 298 298 299 301 302 303 304 302 301 300 299 299 300 300 300 300 300 300 300 300 300 301 301 301 301 301 301 299 299 298 297 298 299 298 299 299 298 299 300 300 300

GFSMA_925_thetae_147.txt.gz
Theta_e
340 339 339 340 339 338 334 330 327 327 325 330 328 325 326 327 328 330 330 330 323 324 326 326 323 322 322 322 322 322 322 322 322 322 324 325 325 325 325 324 324 324 323
341 341 339 340 339 338 337 332 329 329 325 330 330 327 326 326 327 328 329 330 328 322 323 325 327 325 325 327 328 328 327 327 328 328 329 328 328 327 327 326 326 326 325
341 342 341 340 339 338 337 333 332 331 331 330 330 328 326 326 326 327 328 328 329 328 323 323 325 331 331 331 332 332 333 333 331 330 329 330 329 328 327 327 325 322 322
340 340 341 340 340 338 337 334 333 331 332 330 330 329 327 327 326 326 327 327 328 328 328 326 322 323 328 332 333 333 332 331 330 329 327 327 327 329 328 327 323 321 322
341 340 340 340 340 339 337 336 337 332 330 329 330 329 328 328 327 326 326 326 327 327 329 329 328 328 325 324 326 331 331 331 329 329 327 326 326 327 327 324 323 323 324
340 341 340 340 340 339 338 336 335 331 331 329 328 328 328 328 327 327 327 326 326 327 328 329 329 329 329 328 326 324 325 326 328 329 327 326 326 325 324 324 323 324 324
335 340 340 340 340 339 338 337 335 332 330 330 326 327 328 327 327 327 328 328 328 328 328 329 329 328 328 328 328 327 326 325 325 328 328 327 326 326 325 324 323 324 324
330 334 338 340 340 339 338 337 336 332 329 328 326 326 323 326 327 327 327 328 328 329 329 329 329 329 328 328 328 328 327 327 325 327 329 328 328 327 326 326 325 325 326
316 332 335 337 339 339 338 337 336 333 328 327 326 326 324 324 324 327 328 328 328 329 329 329 329 329 328 328 329 328 327 327 326 326 329 330 328 327 326 326 326 325 324
311 313 332 335 336 338 338 337 336 334 332 326 325 325 326 326 324 324 326 327 328 328 329 329 329 329 328 328 328 328 327 326 327 326 327 330 329 327 326 326 325 325 325
312 315 318 330 333 335 335 337 336 334 332 329 327 325 325 326 327 324 325 325 327 328 328 328 329 328 327 326 327 327 327 326 326 326 326 329 330 328 328 327 325 325 325
312 313 317 323 328 331 333 333 334 335 332 330 326 326 325 325 325 326 324 323 325 327 328 328 328 327 327 327 327 327 327 326 326 326 326 327 329 327 328 327 326 324 324
309 312 314 321 323 326 330 331 332 334 334 330 326 324 324 325 325 325 327 327 327 328 328 328 328 327 328 328 327 327 327 326 326 326 326 326 327 326 326 325 325 324 323
310 310 310 315 318 325 327 327 330 330 331 332 329 325 324 324 325 325 326 327 326 326 327 328 328 328 328 325 325 325 325 326 325 326 326 326 326 325 325 324 323 320 320
309 310 311 313 316 319 319 323 327 328 329 331 331 328 325 325 325 325 326 327 327 328 326 325 324 324 324 327 326 325 325 325 325 325 325 325 323 322 323 323 322 320 318
310 310 312 314 315 317 321 321 323 325 326 327 330 328 327 325 326 326 327 327 327 327 326 325 325 326 325 324 323 326 324 325 325 324 324 324 323 323 321 320 320 319 318
309 311 312 313 314 314 314 316 321 322 323 326 326 327 327 326 325 325 326 326 327 327 326 325 326 326 325 324 324 324 323 324 325 324 324 324 324 323 322 321 320 318 317
310 310 311 312 312 313 313 313 315 318 321 323 324 326 326 326 326 326 325 325 326 326 326 326 326 326 326 326 325 325 325 324 325 324 324 324 323 322 322 322 321 319 318
310 311 311 311 311 312 313 313 313 314 319 320 321 325 327 327 326 326 325 325 326 326 326 326 326 326 325 325 325 325 324 324 324 323 323 322 321 320 320 320 320 320 320
311 311 312 312 313 314 315 315 316 315 315 319 321 321 325 326 326 326 326 325 326 324 324 324 325 325 325 323 321 319 317 318 319 321 321 322 321 319 319 319 318 318 318
316 316 316 316 316 316 315 316 316 316 317 318 320 320 322 324 325 325 325 325 325 325 323 323 323 323 320 316 317 320 318 319 318 318 318 318 318 316 316 317 315 314 314
314 314 313 313 313 313 314 314 316 316 317 318 319 319 320 322 325 323 324 325 323 323 323 323 321 319 318 317 315 314 314 313 308 315 313 313 314 313 313 313 312 312 311
307 308 308 310 310 311 313 313 314 316 317 317 318 319 319 319 320 319 318 315 315 315 313 313 310 307 307 306 306 307 308 308 310 311 310 309 311 311 311 311 311 310 309
304 304 305 305 307 306 308 311 314 314 314 314 315 314 313 312 312 314 311 310 306 305 305 305 304 303 303 303 303 304 304 303 304 306 306 302 306 306 306 306 306 306 305
301 300 300 302 303 303 303 305 307 306 305 303 304 305 304 304 303 305 305 304 302 301 301 300 301 301 300 300 301 302 301 300 299 302 301 300 300 301 302 303 305 304 304
298 298 298 298 299 301 303 303 301 300 299 299 299 299 299 299 299 300 301 300 299 298 299 298 298 298 297 297 297 297 296 295 296 297 297 297 298 298 298 300 301 301 301

GFSMA_925_thetae_150.txt.gz
Theta_e
338 337 340 338 337 338 336 333 332 329 324 325 321 319 327 327 327 329 330 329 328 322 323 323 323 322 322 323 323 324 324 323 323 323 324 325 326 326 326 325 324 324 323
341 338 340 339 337 338 338 335 332 329 326 324 328 325 322 324 326 328 329 329 329 326 323 323 328 329 330 330 329 329 328 328 329 331 330 330 329 328 327 326 326 326 325
341 341 340 339 339 339 339 337 334 330 327 326 328 330 327 325 326 327 328 328 328 328 327 323 323 329 331 331 332 332 331 333 333 330 328 328 329 329 328 328 327 322 321
340 340 341 341 339 339 339 338 336 332 330 330 328 330 330 327 326 326 327 327 328 328 328 326 324 323 325 331 332 333 334 332 330 329 328 326 326 326 329 328 325 322 321
338 340 339 340 340 339 339 339 337 334 332 331 331 330 330 328 326 325 325 326 327 327 327 327 328 327 324 324 328 332 332 332 329 328 328 327 325 326 327 326 323 323 323
316 337 340 339 339 339 339 338 337 335 332 332 330 330 330 329 327 326 327 326 326 326 326 326 327 328 328 328 327 327 330 330 328 327 328 327 326 325 325 324 324 324 323
311 321 336 339 339 339 338 338 337 335 334 333 329 327 328 328 327 327 327 327 326 326 326 326 327 328 328 328 327 327 327 326 327 328 328 329 327 326 325 326 326 325 323
308 311 325 334 339 339 338 337 336 334 331 330 329 325 324 326 327 327 327 327 327 327 327 327 327 328 328 328 328 327 327 327 327 328 329 329 328 327 327 326 326 326 325
308 307 310 327 333 338 338 337 336 334 331 328 328 327 324 325 323 326 327 327 327 327 327 328 328 328 328 329 328 328 327 327 327 327 329 330 329 328 328 326 326 326 326
309 308 307 310 325 332 334 337 337 336 334 330 326 327 327 325 323 323 325 326 327 327 327 327 328 328 329 329 329 328 327 327 327 327 327 330 331 330 330 329 326 325 325
308 310 310 309 312 325 331 332 336 336 335 333 328 327 325 325 325 322 324 323 326 327 327 327 327 327 329 329 329 328 327 327 327 327 327 330 331 331 330 330 328 328 325
309 308 309 311 313 321 323 329 331 334 334 333 331 328 326 326 325 325 323 322 323 326 325 326 326 327 328 328 328 327 326 327 327 327 326 329 331 331 330 329 329 327 325
309 309 307 309 313 318 319 324 328 328 330 331 332 329 327 327 326 326 325 326 324 327 327 327 326 327 327 328 327 326 327 327 327 327 326 327 327 329 328 327 328 327 326
309 310 308 308 309 314 317 322 323 325 328 328 329 329 327 326 326 325 325 325 325 326 326 328 328 328 328 328 327 327 320 326 326 326 325 326 326 328 327 326 326 326 326
310 310 308 309 310 310 311 316 319 323 325 326 327 328 328 326 325 324 325 325 326 328 327 326 327 328 327 327 327 326 325 323 322 324 325 325 325 325 325 325 325 325 324
310 309 309 309 310 310 314 315 320 321 322 323 324 325 327 327 325 325 325 325 325 326 327 326 326 327 326 326 326 325 325 323 324 323 324 325 325 324 324 324 323 323 323
310 310 309 309 311 313 314 314 315 317 320 321 322 323 324 325 326 326 325 326 326 326 326 327 326 326 326 327 327 326 324 324 324 324 324 323 324 324 324 323 322 321 321
309 309 309 309 311 312 312 312 312 313 314 318 319 320 321 324 325 325 325 325 326 326 326 327 327 326 326 326 326 325 326 325 325 325 325 324 324 324 323 322 321 320 319
309 309 310 310 310 310 311 311 312 312 313 313 314 319 319 321 323 324 325 325 325 326 326 326 326 326 326 326 326 325 325 325 324 324 324 324 323 322 322 322 321 321 320
310 310 310 310 311 311 312 313 314 315 314 315 315 314 317 320 320 323 323 324 325 325 325 325 325 325 325 325 325 324 322 322 321 320 320 320 321 321 321 320 320 319 318
315 314 314 315 315 315 315 315 315 315 315 316 316 317 317 317 321 320 323 323 324 324 324 323 323 323 322 320 320 320 318 319 318 318 317 318 318 317 317 317 316 315 315
313 313 313 313 313 313 313 313 314 314 314 315 316 316 317 319 319 319 322 321 323 323 323 322 322 321 318 316 313 313 312 312 310 314 313 314 314 314 314 314 314 313 312
306 306 307 307 307 308 309 311 312 312 313 315 315 315 315 316 318 318 317 318 318 318 318 317 314 310 307 305 306 306 307 306 308 309 307 307 309 309 309 309 308 308 307
303 303 303 303 303 304 305 308 310 311 309 309 310 310 311 312 313 314 312 309 305 305 306 307 305 302 302 301 302 302 302 302 303 304 304 302 305 304 303 304 305 304 305
300 300 300 301 302 302 303 305 308 306 305 305 305 305 305 305 305 307 307 303 301 300 299 299 299 299 298 298 299 300 298 298 298 300 299 298 299 299 300 300 302 302 302
298 299 299 299 299 300 301 302 304 302 300 299 299 299 299 299 300 301 302 301 298 297 297 297 296 296 296 295 295 295 294 293 294 296 297 296 296 296 296 297 299 299 298

GFSMA_925_thetae_153.txt.gz
Theta_e
340 338 338 338 337 338 337 336 334 331 327 323 320 319 327 327 327 328 329 329 328 326 328 332 331 326 325 325 324 324 323 323 323 323 324 325 327 327 326 326 325 325 325
339 340 338 338 338 337 338 337 335 333 330 326 323 321 319 324 326 325 327 329 329 328 326 324 332 331 331 331 330 330 328 327 327 329 330 330 329 329 328 327 327 326 323
338 339 339 338 338 339 337 338 336 334 332 329 325 325 325 321 322 324 326 328 329 328 328 326 325 331 332 332 332 332 332 330 333 332 329 328 327 327 329 328 328 325 320
315 334 339 339 339 338 338 338 337 336 334 331 328 324 326 328 326 326 325 326 328 328 328 327 327 325 326 331 332 332 332 332 332 330 329 328 327 326 327 328 327 325 321
309 314 328 339 339 338 338 337 336 337 334 334 331 328 326 328 329 327 326 325 326 327 327 327 327 326 326 326 328 331 332 332 331 330 328 328 327 325 326 328 327 324 322
307 308 313 327 338 338 338 337 335 336 335 335 332 330 330 329 329 329 327 326 325 325 326 326 326 326 326 327 326 327 330 331 330 329 328 327 327 326 325 326 325 325 325
307 307 307 312 326 338 338 337 336 334 334 333 331 329 329 330 330 330 328 326 325 326 326 325 325 326 326 327 327 327 327 327 328 329 329 328 328 328 326 325 326 326 326
308 307 307 307 314 330 337 337 336 335 334 332 331 328 326 327 328 328 328 327 327 327 327 326 326 326 326 327 327 327 328 327 327 328 330 330 328 328 327 326 326 326 326
309 308 307 307 309 318 331 335 336 335 334 332 331 329 325 327 323 326 327 327 327 327 327 326 326 327 327 327 327 328 328 328 327 327 330 331 330 329 329 329 327 326 325
309 309 308 308 308 309 319 330 332 335 335 333 327 328 329 325 324 323 324 325 325 326 326 326 326 327 327 327 327 328 328 328 328 327 327 330 331 331 331 331 330 328 326
310 309 308 308 309 310 312 319 327 331 333 334 331 329 326 327 324 323 325 322 324 326 326 326 326 326 327 327 327 327 328 328 328 327 327 330 330 330 331 330 331 329 327
309 310 309 309 308 309 312 315 318 325 330 330 332 332 328 327 326 325 325 324 322 325 325 324 325 325 326 327 327 327 328 328 328 327 327 330 330 330 329 330 331 329 328
309 309 310 310 309 308 309 317 318 323 324 328 328 328 329 328 327 327 326 326 324 325 326 326 326 325 325 325 325 326 328 328 327 326 327 327 330 329 329 327 328 329 329
309 310 310 309 310 308 307 312 320 324 324 325 326 327 327 328 327 327 326 326 326 325 325 326 327 327 327 327 326 326 327 327 326 325 325 326 326 326 326 326 326 327 327
309 309 309 310 310 308 309 310 311 315 318 322 324 325 326 327 327 326 326 325 326 328 327 326 326 326 327 327 327 327 328 327 327 325 324 320 322 324 324 324 324 325 325
310 310 310 309 309 309 310 310 312 313 315 318 320 321 322 324 325 326 325 325 325 325 326 326 326 326 327 327 328 327 327 326 325 323 323 322 322 324 323 324 324 324 324
310 310 310 309 309 309 310 312 315 317 318 319 320 320 320 321 323 323 324 324 325 325 325 325 325 326 326 326 327 326 326 325 324 324 324 325 325 324 324 324 323 324 323
309 309 309 309 309 308 310 312 312 312 312 312 312 315 318 319 320 321 323 323 322 325 325 325 325 325 326 326 326 326 326 327 326 326 325 325 325 324 324 324 323 323 322
309 309 309 309 310 310 310 310 310 311 311 311 312 313 313 315 319 320 320 321 322 322 324 324 325 325 325 325 325 325 325 325 325 325 324 324 323 323 322 321 321 321 321
312 311 310 310 310 310 310 311 312 313 313 314 314 313 314 315 314 317 320 321 321 322 323 324 324 325 325 324 324 324 323 324 324 323 322 319 319 319 320 319 317 317 318
313 313 314 314 314 314 314 314 314 314 314 314 315 315 315 315 317 317 319 320 321 321 322 322 323 323 322 320 321 323 322 321 319 318 317 317 317 316 316 315 315 314 313
306 307 308 308 308 309 308 310 311 312 312 313 313 314 315 315 316 317 317 320 319 320 321 321 321 321 319 319 318 318 317 313 311 313 312 312 312 313 312 312 312 311 310
304 304 304 303 303 304 304 307 309 309 310 310 311 311 312 312 313 315 315 315 316 318 319 319 318 313 310 309 309 309 308 309 309 307 306 306 308 307 307 307 306 305 305
303 303 302 303 304 304 305 306 307 308 308 308 308 310 310 310 310 308 310 310 308 307 307 309 308 303 304 304 304 303 302 302 303 303 303 302 303 303 303 303 302 301 302
300 300 300 300 301 301 302 302 304 304 304 303 304 305 305 305 306 306 305 303 300 298 298 298 298 297 297 298 299 300 298 299 297 299 298 298 299 299 298 298 299 300 300
298 298 298 298 299 299 300 300 301 300 298 297 298 298 297 298 300 300 301 299 297 296 296 296 296 295 295 295 295 295 295 294 294 295 293 295 295 295 294 295 296 296 295

GFSMA_925_thetae_156.txt.gz
Theta_e
339 339 338 338 338 337 337 337 337 335 332 328 322 319 320 326 327 328 328 328 328 328 331 333 332 331 328 327 327 326 325 324 323 323 324 326 327 327 327 327 326 326 326
338 339 339 338 339 338 337 337 337 336 334 332 327 322 319 320 327 327 327 326 328 328 328 330 333 332 331 331 330 330 329 328 327 327 329 330 329 329 329 328 328 327 326
314 329 338 339 339 339 338 337 337 337 336 334 331 327 323 321 319 323 325 325 326 328 328 327 332 332 332 332 331 331 330 330 329 331 332 330 328 327 326 328 329 328 326
307 310 319 334 339 338 338 337 337 338 336 335 334 331 327 323 325 323 323 323 325 326 328 328 327 327 330 332 332 331 330 330 330 332 330 329 327 327 326 326 328 328 325
307 307 308 316 326 338 338 338 337 336 335 334 335 334 331 327 323 325 327 326 326 325 326 327 327 327 327 326 329 332 331 330 330 331 330 329 328 327 327 326 327 327 324
309 308 307 307 313 327 335 336 337 335 335 334 333 334 334 331 327 325 326 329 328 326 325 325 326 326 326 326 326 327 330 332 330 329 329 328 328 328 327 326 327 326 325
309 309 309 307 307 309 319 335 335 336 334 333 331 330 332 332 331 329 328 329 329 328 326 325 325 326 325 325 325 326 327 327 329 329 329 328 328 328 328 327 326 326 327
309 309 309 308 307 307 313 323 332 334 335 333 332 330 329 329 331 331 330 330 329 329 328 326 325 325 326 325 325 326 326 327 327 329 331 329 329 328 329 328 327 326 326
309 309 309 309 308 307 312 315 323 331 334 333 332 331 328 329 325 328 330 330 330 329 329 328 327 326 326 326 326 326 326 327 327 327 329 331 329 329 330 330 330 329 327
311 310 309 309 309 308 308 312 316 326 331 333 330 331 332 326 325 325 324 326 326 326 327 327 327 327 326 326 326 326 326 326 327 327 328 329 331 331 331 331 331 330 329
311 310 309 309 309 308 308 309 312 317 326 331 330 328 328 329 326 323 328 322 324 325 325 325 325 326 326 326 326 326 326 326 327 327 328 328 331 331 331 330 329 329 330
310 309 309 309 309 309 308 308 311 314 319 324 329 329 329 327 327 326 325 326 325 326 328 327 327 325 325 325 325 325 326 326 326 327 328 328 328 329 330 331 331 330 330
309 309 309 309 309 309 309 309 308 315 319 322 325 327 328 329 328 328 327 327 326 326 326 327 327 329 327 325 325 325 325 325 326 327 328 327 328 327 328 328 329 329 328
309 309 309 309 309 309 309 309 308 310 318 321 322 324 327 327 327 327 326 326 327 325 326 326 327 327 327 327 326 326 326 326 326 327 326 326 325 325 326 326 325 325 325
309 309 309 309 309 309 309 308 308 309 311 317 319 319 323 324 325 326 326 325 325 326 325 325 326 326 326 326 327 326 326 326 327 326 326 323 323 323 323 322 324 324 325
309 309 309 309 309 309 308 308 309 310 312 312 312 316 319 320 321 321 323 324 324 324 325 324 325 325 326 326 326 325 326 327 327 327 327 326 326 325 324 322 324 323 323
309 309 310 309 309 309 309 309 310 311 316 318 319 320 321 321 321 321 321 321 321 321 322 322 323 324 325 325 326 326 326 327 327 327 327 326 324 324 324 324 324 324 324
308 308 308 308 308 308 308 309 311 312 313 313 313 313 313 315 317 318 319 320 321 322 321 322 322 322 323 324 325 325 326 326 326 326 326 324 323 325 324 323 323 323 323
309 308 308 308 308 309 309 309 309 310 310 310 310 310 310 311 313 313 315 318 319 319 320 321 321 322 323 324 324 325 325 325 325 325 325 325 324 323 323 322 321 321 320
310 311 311 309 309 309 310 310 310 311 311 312 312 312 313 312 313 313 315 315 316 319 320 320 320 321 322 322 323 323 322 322 323 324 324 324 322 321 321 319 318 317 316
307 306 308 309 309 310 309 308 311 312 312 313 313 313 313 314 314 314 315 316 317 318 319 319 319 320 320 319 319 321 321 321 321 321 320 320 320 318 317 316 315 314 314
303 303 304 304 304 304 304 304 305 307 308 309 310 311 312 312 313 314 314 314 313 314 317 317 318 319 319 319 318 317 319 316 312 315 314 314 314 314 313 311 310 309 309
301 300 301 301 302 301 302 303 304 306 306 306 306 307 308 309 310 309 310 311 310 310 311 313 313 308 310 306 309 311 312 310 308 304 306 307 308 308 306 305 305 304 303
300 300 300 300 301 300 302 303 305 305 305 304 304 304 305 306 307 308 308 305 301 301 302 304 301 298 298 301 302 302 302 302 302 301 302 301 301 302 301 300 299 299 300
298 298 298 299 299 299 300 301 302 302 300 299 298 297 299 300 301 302 302 299 297 296 295 295 297 297 297 298 299 300 297 298 296 295 295 296 296 297 296 296 297 297 296
298 298 297 297 297 298 298 299 300 299 298 297 296 296 295 296 297 299 298 297 295 294 295 296 295 296 295 294 294 294 293 293 294 294 291 293 294 293 292 294 293 294 294

GFSMA_925_thetae_162.txt.gz
Theta_e
333 338 339 339 339 339 339 339 339 338 338 337 336 333 327 323 324 326 327 328 327 328 328 332 333 332 331 331 330 330 329 328 328 326 325 325 326 327 328 331 329 330 328
318 325 333 338 339 339 339 339 339 338 338 337 337 336 334 328 324 323 325 327 327 327 328 328 331 334 332 331 331 330 330 330 329 328 328 328 328 329 329 329 328 329 329
311 312 316 327 334 338 338 338 338 337 337 336 336 337 335 335 330 325 322 323 326 327 327 327 328 330 334 333 332 331 330 329 329 329 329 329 330 331 330 328 328 327 328
311 311 311 312 316 328 332 338 337 337 337 337 335 336 337 336 335 331 326 323 322 324 326 326 325 327 329 333 333 333 331 330 329 329 329 330 330 330 329 328 327 326 326
310 310 311 312 312 313 319 329 334 337 337 337 336 336 336 336 336 335 333 328 326 324 323 325 325 325 326 328 331 333 333 331 330 330 329 330 330 330 329 328 328 327 324
310 310 311 311 312 312 312 314 325 333 335 335 335 335 335 335 335 335 334 332 329 327 326 326 326 326 325 324 327 328 332 332 331 330 330 329 330 330 329 329 328 328 326
309 310 310 311 311 312 312 312 313 320 332 333 336 335 335 334 334 334 333 333 334 334 333 325 327 328 328 327 325 325 326 327 328 329 329 328 328 328 328 328 330 329 328
309 309 310 310 311 311 312 312 313 314 316 326 332 332 334 332 331 332 332 333 332 332 330 331 327 327 329 329 329 327 326 325 326 329 329 329 327 327 329 329 331 330 330
309 310 310 311 311 312 312 312 313 314 315 318 326 331 334 334 332 333 333 332 331 332 331 331 329 327 328 329 329 328 327 326 325 326 330 330 330 327 329 332 331 331 331
310 310 310 311 312 312 312 312 313 313 314 316 318 327 331 330 332 332 328 330 332 332 331 331 330 330 329 330 331 330 328 327 326 325 325 329 329 330 332 332 332 331 330
310 311 311 311 312 312 312 312 312 312 313 315 317 320 325 328 329 329 331 330 329 329 329 329 329 329 328 327 327 328 328 327 328 327 326 328 330 331 332 332 331 331 330
311 312 312 311 311 311 311 312 312 312 312 313 314 316 319 323 328 328 329 329 329 329 330 330 329 328 328 327 326 327 327 327 330 330 328 325 325 328 331 331 331 331 331
311 312 310 309 309 310 310 311 311 312 312 313 313 314 315 317 321 324 326 327 329 327 328 328 328 328 328 328 327 326 326 327 327 327 327 328 325 325 327 329 328 330 331
311 312 311 309 309 308 308 310 311 312 312 313 313 313 315 315 316 318 321 323 326 325 325 326 326 326 326 327 327 326 325 326 327 327 328 327 327 325 325 325 326 328 328
312 311 311 310 308 308 308 309 311 311 312 312 314 315 315 317 318 319 319 320 322 325 324 320 320 320 323 325 327 327 326 325 326 327 326 326 326 326 326 326 327 327 327
311 310 310 310 310 309 309 309 310 310 311 311 313 315 315 317 318 319 321 321 321 321 324 319 318 319 321 323 324 324 325 325 325 324 325 326 326 326 325 325 327 327 326
310 309 309 309 309 310 310 310 310 310 311 311 312 314 315 316 316 317 319 320 320 320 322 319 319 319 320 320 320 321 322 322 322 323 324 325 325 325 326 326 326 326 325
309 310 310 309 309 309 309 309 310 310 312 315 315 317 318 318 318 317 317 317 318 318 318 318 316 316 316 317 317 318 319 321 322 322 321 322 322 324 325 326 326 327 327
306 307 308 309 309 309 309 310 310 310 310 311 311 312 312 312 312 313 313 314 314 314 314 315 316 315 316 316 317 317 318 320 321 321 320 320 320 322 323 324 325 326 326
305 305 305 306 307 307 307 307 307 307 308 309 309 310 311 312 313 313 314 314 315 315 315 316 315 315 315 315 315 316 317 318 319 320 321 321 321 321 320 322 322 323 324
304 304 304 304 305 304 304 304 306 306 307 307 307 308 308 308 308 308 309 310 310 311 311 313 313 313 314 313 313 314 314 315 316 315 315 315 314 313 312 313 315 315 316
302 302 302 302 303 303 302 303 304 306 306 307 307 308 307 307 308 308 308 308 308 308 309 308 310 310 308 304 303 303 305 307 312 308 304 305 305 305 303 302 302 303 304
302 302 301 301 301 301 303 303 305 305 306 305 305 305 305 305 306 306 306 305 303 303 302 302 300 297 298 297 298 299 300 301 301 298 303 300 299 298 300 300 299 300 298
301 301 301 301 301 300 301 302 303 302 301 300 300 301 301 302 302 304 302 301 300 298 298 297 296 295 295 297 297 297 297 299 299 298 298 298 296 296 297 298 298 299 298
299 299 298 299 299 299 299 300 300 300 299 298 298 297 298 299 299 300 299 298 296 295 295 295 294 293 293 292 294 295 294 294 296 293 293 293 293 294 294 294 293 294 293
297 296 296 295 296 297 295 297 299 300 299 298 296 295 295 295 296 298 298 298 297 293 293 293 293 290 289 288 288 288 289 291 292 294 289 291 291 291 294 292 292 292 291